• In Hungary
  • List of Countries
  • For 7 days
  • Water Temperature
  • Satellite Maps
  • Weather Map
  • News
  • Weather Widgets
  • user-avatar
    Login

    Hourly Weather Barletta

    Today, 23 September, Sunday

    Time Temperature Precipitation Wind Pressure Humidity
    00:00 +26°C° 0 mm 2 mps 762 mmHg 60%
    01:00 +26°C° 0 mm 2 mps 762 mmHg 61%
    02:00 +25°C° 0 mm 2 mps 762 mmHg 62%
    03:00 +25°C° 0 mm 2 mps 762 mmHg 63%
    04:00 +25°C° 0 mm 1 mps 762 mmHg 64%
    05:00 +25°C° 0 mm 1 mps 762 mmHg 63%
    06:00 +26°C° 0 mm 1 mps 762 mmHg 62%
    07:00 +26°C° 0 mm 1 mps 762 mmHg 61%
    08:00 +28°C° 0 mm 1 mps 762 mmHg 54%
    09:00 +30°C° 0 mm 1 mps 763 mmHg 47%
    10:00 +32°C° 0 mm 1 mps 763 mmHg 40%
    11:00 +34°C° 0 mm 2 mps 763 mmHg 37%
    12:00 +35°C° 0 mm 2 mps 763 mmHg 35%
    13:00 +36°C° 0 mm 3 mps 763 mmHg 32%
    14:00 +35°C° 0 mm 3 mps 762 mmHg 32%
    15:00 +35°C° 0 mm 4 mps 762 mmHg 33%
    16:00 +35°C° 0 mm 4 mps 761 mmHg 34%
    17:00 +34°C° 0 mm 4 mps 761 mmHg 38%
    18:00 +32°C° 0 mm 4 mps 761 mmHg 43%
    19:00 +29°C° 0 mm 4 mps 761 mmHg 47%
    20:00 +29°C° 0 mm 4 mps 761 mmHg 52%
    21:00 +28°C° 0 mm 4 mps 761 mmHg 57%
    22:00 +27°C° 0 mm 4 mps 761 mmHg 62%
    23:00 +27°C° 0 mm 4 mps 761 mmHg 65%

    Tomorrow, 24 September, Monday

    Time Temperature Precipitation Wind Pressure Humidity
    00:00 +26°C° 0 mm 4 mps 760 mmHg 68%
    01:00 +26°C° 0 mm 4 mps 760 mmHg 70%
    02:00 +26°C° 0 mm 4 mps 760 mmHg 71%
    03:00 +25°C° 0 mm 4 mps 759 mmHg 71%
    04:00 +25°C° 0 mm 4 mps 759 mmHg 71%
    05:00 +25°C° 0 mm 4 mps 759 mmHg 70%
    06:00 +25°C° 0 mm 4 mps 759 mmHg 68%
    07:00 +26°C° 0 mm 4 mps 759 mmHg 66%
    08:00 +28°C° 0 mm 4 mps 759 mmHg 60%
    09:00 +29°C° 0 mm 4 mps 759 mmHg 53%
    10:00 +32°C° 0 mm 4 mps 759 mmHg 46%
    11:00 +33°C° 0 mm 3 mps 759 mmHg 45%
    12:00 +34°C° 0 mm 3 mps 759 mmHg 43%
    13:00 +34°C° 0 mm 3 mps 758 mmHg 42%
    14:00 +34°C° 0 mm 4 mps 758 mmHg 44%
    15:00 +33°C° 0 mm 5 mps 758 mmHg 46%
    16:00 +33°C° 0 mm 5 mps 758 mmHg 48%
    17:00 +30°C° 0 mm 5 mps 759 mmHg 57%
    18:00 +28°C° 0 mm 5 mps 759 mmHg 65%
    19:00 +26°C° 0 mm 6 mps 760 mmHg 74%
    20:00 +26°C° 0 mm 6 mps 761 mmHg 73%
    21:00 +26°C° 0 mm 6 mps 761 mmHg 71%
    22:00 +24°C° 0 mm 7 mps 762 mmHg 70%
    23:00 +23°C° 0 mm 7 mps 762 mmHg 67%

    Day after tomorrow, 25 September, Tuesday

    Time Temperature Precipitation Wind Pressure Humidity
    00:00 +23°C° 0 mm 8 mps 763 mmHg 65%
    01:00 +22°C° 0 mm 8 mps 763 mmHg 62%
    02:00 +22°C° 0 mm 7 mps 763 mmHg 63%
    03:00 +21°C° 0 mm 7 mps 764 mmHg 65%
    04:00 +20°C° 0 mm 6 mps 764 mmHg 66%
    05:00 +21°C° 0 mm 7 mps 764 mmHg 64%
    06:00 +21°C° 0 mm 7 mps 765 mmHg 62%
    07:00 +21°C° 0 mm 7 mps 765 mmHg 60%
    08:00 +22°C° 0 mm 7 mps 765 mmHg 55%
    09:00 +22°C° 0 mm 8 mps 766 mmHg 50%
    10:00 +23°C° 0 mm 8 mps 766 mmHg 44%
    11:00 +23°C° 0 mm 8 mps 766 mmHg 42%
    12:00 +23°C° 0 mm 8 mps 766 mmHg 40%
    13:00 +24°C° 0 mm 8 mps 766 mmHg 38%
    14:00 +23°C° 0 mm 8 mps 766 mmHg 39%
    15:00 +23°C° 0 mm 8 mps 766 mmHg 39%
    16:00 +22°C° 0 mm 8 mps 766 mmHg 39%
    17:00 +21°C° 0 mm 7 mps 766 mmHg 41%
    18:00 +21°C° 0 mm 7 mps 767 mmHg 43%
    19:00 +20°C° 0 mm 6 mps 767 mmHg 45%
    20:00 +20°C° 0 mm 6 mps 767 mmHg 46%
    21:00 +19°C° 0 mm 6 mps 768 mmHg 47%
    22:00 +19°C° 0 mm 6 mps 768 mmHg 48%
    23:00 +19°C° 0 mm 6 mps 768 mmHg 50%

    26 September, Wednesday

    Time Temperature Precipitation Wind Pressure Humidity
    00:00 +19°C° 0 mm 6 mps 768 mmHg 51%
    01:00 +17°C° 0 mm 6 mps 768 mmHg 53%
    02:00 +17°C° 0 mm 6 mps 768 mmHg 54%
    03:00 +17°C° 0 mm 5 mps 769 mmHg 55%
    04:00 +17°C° 0 mm 5 mps 769 mmHg 56%
    05:00 +17°C° 0 mm 5 mps 769 mmHg 55%
    06:00 +17°C° 0 mm 5 mps 769 mmHg 54%
    07:00 +17°C° 0 mm 5 mps 769 mmHg 53%
    08:00 +19°C° 0 mm 6 mps 770 mmHg 48%
    09:00 +20°C° 0 mm 6 mps 770 mmHg 43%
    10:00 +22°C° 0 mm 6 mps 770 mmHg 38%
    11:00 +22°C° 0 mm 6 mps 770 mmHg 37%
    12:00 +22°C° 0 mm 6 mps 770 mmHg 36%
    13:00 +23°C° 0 mm 6 mps 770 mmHg 34%
    14:00 +23°C° 0 mm 6 mps 770 mmHg 36%
    15:00 +22°C° 0 mm 5 mps 770 mmHg 37%
    16:00 +22°C° 0 mm 5 mps 770 mmHg 38%
    17:00 +21°C° 0 mm 4 mps 770 mmHg 40%
    18:00 +20°C° 0 mm 4 mps 770 mmHg 43%
    19:00 +19°C° 0 mm 3 mps 770 mmHg 45%
    20:00 +18°C° 0 mm 3 mps 771 mmHg 47%
    21:00 +18°C° 0 mm 3 mps 771 mmHg 49%
    22:00 +18°C° 0 mm 3 mps 771 mmHg 50%
    23:00 +17°C° 0 mm 3 mps 771 mmHg 53%

    27 September, Thursday

    Time Temperature Precipitation Wind Pressure Humidity
    00:00 +17°C° 0 mm 3 mps 770 mmHg 56%
    01:00 +17°C° 0 mm 3 mps 770 mmHg 58%
    02:00 +16°C° 0 mm 3 mps 770 mmHg 59%
    03:00 +16°C° 0 mm 3 mps 770 mmHg 61%
    04:00 +16°C° 0 mm 3 mps 769 mmHg 62%
    05:00 +16°C° 0 mm 3 mps 769 mmHg 61%
    06:00 +17°C° 0 mm 3 mps 769 mmHg 60%
    07:00 +17°C° 0 mm 3 mps 769 mmHg 58%
    08:00 +19°C° 0 mm 3 mps 769 mmHg 52%
    09:00 +21°C° 0 mm 4 mps 768 mmHg 46%
    10:00 +23°C° 0 mm 4 mps 768 mmHg 39%
    11:00 +23°C° 0 mm 4 mps 768 mmHg 37%
    12:00 +25°C° 0 mm 5 mps 767 mmHg 35%
    13:00 +26°C° 0 mm 5 mps 767 mmHg 33%
    14:00 +26°C° 0 mm 5 mps 766 mmHg 35%
    15:00 +26°C° 0 mm 5 mps 765 mmHg 38%
    16:00 +26°C° 0 mm 6 mps 765 mmHg 40%
    17:00 +23°C° 0 mm 5 mps 764 mmHg 46%
    18:00 +22°C° 0 mm 5 mps 764 mmHg 52%
    19:00 +21°C° 0 mm 5 mps 764 mmHg 58%
    20:00 +20°C° 0 mm 5 mps 763 mmHg 61%
    21:00 +20°C° 0 mm 5 mps 763 mmHg 63%
    22:00 +19°C° 0 mm 5 mps 763 mmHg 66%
    23:00 +19°C° 0 mm 5 mps 762 mmHg 66%

    28 September, Friday

    Time Temperature Precipitation Wind Pressure Humidity
    00:00 +19°C° 0 mm 5 mps 762 mmHg 66%
    01:00 +17°C° 0 mm 5 mps 762 mmHg 66%
    02:00 +17°C° 0 mm 5 mps 761 mmHg 67%
    03:00 +17°C° 0 mm 5 mps 761 mmHg 68%
    04:00 +17°C° 0 mm 5 mps 761 mmHg 69%
    05:00 +17°C° 0 mm 5 mps 760 mmHg 68%
    06:00 +19°C° 0 mm 5 mps 760 mmHg 67%
    07:00 +19°C° 0 mm 5 mps 760 mmHg 66%
    08:00 +21°C° 0 mm 5 mps 760 mmHg 60%
    09:00 +23°C° 0 mm 5 mps 760 mmHg 55%
    10:00 +26°C° 0 mm 5 mps 760 mmHg 50%
    11:00 +27°C° 0 mm 5 mps 760 mmHg 46%
    12:00 +27°C° 0 mm 5 mps 760 mmHg 42%
    13:00 +28°C° 0 mm 5 mps 759 mmHg 39%
    14:00 +28°C° 0 mm 5 mps 759 mmHg 40%
    15:00 +28°C° 0 mm 5 mps 759 mmHg 41%
    16:00 +28°C° 0 mm 4 mps 759 mmHg 43%
    17:00 +26°C° 0 mm 4 mps 759 mmHg 49%
    18:00 +25°C° 0 mm 4 mps 759 mmHg 56%
    19:00 +24°C° 0 mm 3 mps 759 mmHg 62%
    20:00 +22°C° 0 mm 3 mps 759 mmHg 64%
    21:00 +22°C° 0 mm 3 mps 759 mmHg 66%
    22:00 +21°C° 0 mm 3 mps 759 mmHg 68%
    23:00 +21°C° 0 mm 3 mps 759 mmHg 67%
    Show more